Home > Weather > Riverside > Past weeks

Flag for USA Past Weather in Riverside, California, USA — Yesterday and Last 2 Weeks

Now
89 °F

Sunny.


Feels Like: 88 °F
Forecast: 63 / 90 °F
Wind: 14 mph from West

Location: Riverside Municipal Airport

Current Time: Aug 25, 2016 at 3:22:30 PM

Latest Report: Aug 25, 2016 at 2:53 PM


Visibility: 10 mi

Pressure: 29.81 "Hg

Humidity: 35%

Dew Point: 58 °F

Location of RiversideLocation

Past Weather in Riverside — Graph

°F

Riverside Temperature Yesterday

Maximum temperature yesterday: 94 °F (at 2:53 PM)
Minimum temperature yesterday: 65 °F (at 6:53 AM)
Average temperature yesterday: 78 °F

High & Low Weather Summary for the Past Weeks

 TemperatureHumidityPressure
High106 °F (Aug 15, 2:53 PM)84% (Aug 11, 4:53 AM)30.01 "Hg (Aug 11, 4:53 AM)
Low62 °F (Aug 11, 5:53 AM)4% (Aug 16, 12:53 PM)29.74 "Hg (Aug 17, 5:53 PM)
Average80 °F43%29.86 "Hg
* Reported Aug 10 1:53 PM — Aug 25 1:53 PM, Riverside, Weather by CustomWeather, © 2016

Note: Actual official high and low records may vary slightly from our data, if they occured in-between our weather recording intervals... More about our weather records

Advertising

Riverside Weather History for the Previous 24 Hours

Scroll right to see more
 ConditionsComfort  
Time TempWeatherWind HumidityBarometerVisibility
1:53 PM
Thu, Aug 25
90 °FSunny.8 mph29%29.83 "Hg10 mi
12:53 PM86 °FSunny.3 mph37%29.86 "Hg10 mi
11:53 AM83 °FSunny.6 mph40%29.89 "Hg10 mi
10:53 AM79 °FSunny.6 mph48%29.91 "Hg9 mi
9:53 AM73 °FSunny.5 mph59%29.93 "Hg9 mi
8:53 AM69 °FSunny.5 mph70%29.93 "Hg9 mi
7:53 AM67 °FSunny.3 mph79%29.93 "Hg8 mi
6:53 AM65 °FClear.No wind81%29.92 "Hg9 mi
5:53 AM67 °FClear.No wind73%29.90 "Hg10 mi
4:53 AM67 °FClear.No wind71%29.89 "Hg10 mi
3:53 AM68 °FClear.No wind68%29.90 "Hg10 mi
2:53 AM68 °FClear.No wind68%29.89 "Hg10 mi
1:53 AM71 °FClear.No wind61%29.90 "Hg10 mi
12:53 AM71 °FClear.No wind59%29.91 "Hg10 mi
11:53 PM
Wed, Aug 24
72 °FClear.No wind57%29.91 "Hg10 mi
10:53 PM74 °FClear.No wind52%29.92 "Hg10 mi
9:53 PM74 °FClear.5 mph53%29.92 "Hg10 mi
8:53 PM77 °FClear.8 mph48%29.91 "Hg10 mi
7:53 PM79 °FSunny.8 mph45%29.88 "Hg10 mi
6:53 PM84 °FSunny.8 mph38%29.87 "Hg10 mi
5:53 PM88 °FSunny.13 mph34%29.86 "Hg10 mi
4:53 PM92 °FSunny.7 mph28%29.87 "Hg10 mi
3:53 PM92 °FSunny.13 mph27%29.88 "Hg10 mi
Weather by CustomWeather, © 2016

See weather overviewHow to use our weather pages